Location: Lafig�re
(44.4503°N, 4.0357°E)
Time: 15:40:54
(UTC+00:00)

BlueWalker 3 - Visible Passes

Search period start: 04 December 2022 00:00
Search period end: 14 December 2022 00:00
Orbit: 501 x 519 km, 53.2° (Epoch: 04 December)

Date Brightness Start Highest point End Pass type
(mag) Time Alt. Az. Time Alt. Az. Time Alt. Az.
04 Dec 3.5 17:01:15 10° NW 17:04:22 22° N 17:06:43 14° NE visible
04 Dec 4.2 18:40:09 10° NW 18:41:34 20° NW 18:41:34 20° NW visible
05 Dec 3.5 16:42:53 10° NW 16:46:01 22° N 16:49:08 10° NE visible
05 Dec 3.5 18:21:45 10° NW 18:24:00 28° NNW 18:24:00 28° NNW visible
06 Dec 2.7 18:03:21 10° NW 18:06:31 38° N 18:06:31 38° N visible
07 Dec 2.4 17:44:56 10° NW 17:48:41 42° NNE 17:49:06 41° NE visible
07 Dec 5.2 19:23:42 10° WNW 19:23:58 11° WNW 19:23:58 11° WNW visible
08 Dec 2.3 17:26:31 10° NW 17:30:18 44° NNE 17:31:51 29° E visible
08 Dec 4.6 19:05:20 10° WNW 19:06:42 19° W 19:06:42 19° W visible
09 Dec 2.3 17:08:06 10° NW 17:11:54 46° NNE 17:14:46 16° E visible
09 Dec 3.8 18:46:57 10° WNW 18:49:38 30° WSW 18:49:38 30° WSW visible
10 Dec 2.2 16:49:41 10° NW 16:53:30 48° NNE 16:57:16 10° ESE visible
10 Dec 3.5 18:28:34 10° WNW 18:32:03 31° SW 18:32:48 29° SSW visible
11 Dec 2.2 16:31:15 10° NW 16:35:06 51° NNE 16:38:53 10° ESE visible
11 Dec 3.8 18:10:11 10° WNW 18:13:36 29° SW 18:16:20 14° S visible
12 Dec 4.0 17:51:48 10° WNW 17:55:09 28° SW 17:58:29 10° SSE visible
13 Dec 4.2 17:33:25 10° WNW 17:36:42 26° SW 17:39:57 10° S visible
